DW1289 Weather Reports


Display with metric or nautical units.
time (UTC)temp
F
wind
direction
speed
MPH
gust
MPH
rain 1hr
in
rain 24hr
in
rain mn
in
humidity
%
barometer
mb
20260510130016 66 248 2.0 6.0 0.00 0.00 0.00 71 1015.0
20260510125016 65 248 1.0 3.0 0.00 0.00 0.00 71 1014.7
20260510124016 64 248 2.0 4.0 0.00 0.00 0.00 73 1014.5
20260510123036 63 225 2.0 4.0 0.00 0.00 0.00 75 1014.2
20260510122016 62 248 1.0 4.0 0.00 0.00 0.00 73 1014.1
20260510121016 62 225 1.0 2.0 0.00 0.00 0.00 73 1013.8
20260510120036 62 225 1.0 2.0 0.00 0.00 0.00 73 1013.7
20260510115016 62 0.0 1.0 0.00 0.00 0.00 72 1013.6
20260510114016 62 0.0 1.0 0.00 0.00 0.00 72 1013.4
20260510113016 62 225 1.0 3.0 0.00 0.00 0.00 70 1013.5
20260510112016 62 248 1.0 3.0 0.00 0.00 0.00 70 1013.4
20260510111016 63 248 1.0 2.0 0.00 0.00 0.00 69 1013.5
20260510110016 63 0.0 2.0 0.00 0.00 0.00 69 1013.5
20260510105016 63 0.0 2.0 0.00 0.00 0.00 69 1013.5
20260510104016 63 0.0 2.0 0.00 0.00 0.00 68 1013.4
20260510103056 63 203 1.0 3.0 0.00 0.00 0.00 69 1013.3
20260510102056 63 225 1.0 2.0 0.00 0.00 0.00 69 1013.1
20260510101016 63 248 3.0 9.0 0.00 0.00 0.00 69 1012.7
20260510100016 62 248 3.0 10.0 0.00 0.00 0.00 70 1012.7
20260510095016 61 248 3.0 7.0 0.00 0.00 0.00 72 1012.6
20260510094036 60 248 3.0 10.0 0.00 0.00 0.00 75 1012.6
20260510093016 59 248 4.0 11.0 0.00 0.00 0.00 78 1012.6
20260510092056 58 248 2.0 6.0 0.00 0.00 0.00 80 1012.6
20260510091016 58 0.0 2.0 0.00 0.00 0.00 79 1012.6
20260510090016 58 0.0 4.0 0.00 0.00 0.00 79 1012.1
20260510085016 58 0.0 2.0 0.00 0.00 0.00 78 1012.0
20260510084016 58 0.0 1.0 0.00 0.00 0.00 78 1011.9
20260510083016 58 0.0 1.0 0.00 0.00 0.00 78 1011.9
20260510082016 58 0.0 3.0 0.00 0.00 0.00 78 1011.9
20260510081056 58 0.0 3.0 0.00 0.00 0.00 78 1011.8
20260510080016 58 0.0 4.0 0.00 0.00 0.00 78 1011.8
20260510075036 58 0.0 1.0 0.00 0.00 0.00 78 1011.8
20260510074016 58 0.0 1.0 0.00 0.00 0.00 78 1011.6
20260510073016 58 0.0 2.0 0.00 0.00 0.00 79 1011.5
20260510072016 58 225 1.0 4.0 0.00 0.00 0.00 79 1011.4
20260510071016 58 225 1.0 3.0 0.00 0.00 0.00 79 1011.4
20260510070016 58 225 2.0 4.0 0.00 0.00 0.00 79 1011.4
20260510065036 57 0.0 3.0 0.00 0.00 0.00 79 1011.3
20260510064016 57 0.0 0.0 0.00 0.00 0.00 79 1011.4
20260510063016 57 0.0 0.0 0.00 0.00 0.00 78 1011.3
20260510062016 57 0.0 0.0 0.00 0.00 0.00 78 1011.3
20260510061016 58 0.0 0.0 0.00 0.00 0.00 78 1011.4
20260510060016 58 0.0 0.0 0.00 0.00 0.00 78 1011.4
20260510055016 58 0.0 0.0 0.00 0.00 0.00 77 1011.5
20260510054016 58 0.0 0.0 0.00 0.00 0.00 77 1011.6
20260510053016 59 0.0 0.0 0.00 0.00 0.00 77 1011.6
20260510052016 59 0.0 0.0 0.00 0.00 0.00 76 1011.7
20260510051016 59 0.0 0.0 0.00 0.00 0.00 75 1011.7
20260510050016 59 0.0 0.0 0.00 0.00 0.00 75 1011.6
20260510045016 60 0.0 0.0 0.00 0.00 0.00 74 1011.9
20260510044016 60 0.0 0.0 0.00 0.00 0.00 74 1011.8
20260510043016 60 0.0 0.0 0.00 0.00 0.00 73 1011.6
20260510042016 61 0.0 0.0 0.00 0.00 0.00 72 1011.5
20260510041036 61 0.0 0.0 0.00 0.00 0.00 72 1011.5
20260510040016 61 0.0 0.0 0.00 0.00 0.00 71 1011.5
20260510035016 61 0.0 0.0 0.00 0.00 0.00 70 1011.5
20260510034016 62 0.0 0.0 0.00 0.00 0.00 70 1011.5
20260510033016 62 0.0 0.0 0.00 0.00 0.00 69 1011.5
20260510032036 63 0.0 0.0 0.00 0.00 0.00 68 1011.5
20260510031036 63 0.0 0.0 0.00 0.00 0.00 67 1011.5
20260510030016 64 0.0 0.0 0.00 0.00 0.00 66 1011.6
20260510025016 64 0.0 0.0 0.00 0.00 0.00 65 1011.4
20260510024016 65 0.0 0.0 0.00 0.00 0.00 63 1011.4
20260510023016 66 0.0 0.0 0.00 0.00 0.00 62 1011.3
20260510022016 66 0.0 0.0 0.00 0.00 0.00 61 1011.0
20260510021016 67 0.0 1.0 0.00 0.00 0.00 59 1011.0
20260510020016 67 0.0 2.0 0.00 0.00 0.00 58 1010.7
20260510015056 68 225 1.0 3.0 0.00 0.00 0.00 57 1010.4
20260510014016 68 248 2.0 3.0 0.00 0.00 0.00 57 1010.2
20260510013016 69 248 2.0 4.0 0.00 0.00 0.00 55 1010.1
20260510012036 70 248 2.0 4.0 0.00 0.00 0.00 54 1010.0
20260510011016 71 248 1.0 3.0 0.00 0.00 0.00 53 1009.9
20260510010016 71 248 1.0 4.0 0.00 0.00 0.00 51 1009.8
20260510005036 72 248 2.0 7.0 0.00 0.00 0.00 50 1009.7
20260510004037 73 248 3.0 7.0 0.00 0.00 0.00 49 1009.6
20260510003016 73 225 3.0 5.0 0.00 0.00 0.00 48 1009.4
20260510002016 74 248 3.0 5.0 0.00 0.00 0.00 47 1009.3
20260510001016 74 248 3.0 8.0 0.00 0.00 0.00 46 1009.1
20260510000036 75 248 3.0 6.0 0.00 0.00 0.00 45 1009.0
20260509235016 75 248 4.0 8.0 0.00 0.00 0.00 44 1008.9
20260509234016 76 248 4.0 11.0 0.00 0.00 0.00 45 1008.8
20260509233056 76 248 4.0 9.0 0.00 0.00 0.00 44 1008.7
20260509232036 76 248 5.0 13.0 0.00 0.00 0.00 44 1008.8
20260509231016 77 248 5.0 13.0 0.00 0.00 0.00 43 1008.8
20260509230016 77 248 5.0 10.0 0.00 0.00 0.00 43 1008.7
20260509225016 77 248 4.0 9.0 0.00 0.00 0.00 43 1008.8
20260509224016 78 248 4.0 10.0 0.00 0.00 0.00 44 1008.6
20260509223016 78 248 4.0 9.0 0.00 0.00 0.00 44 1008.6
20260509222056 78 248 5.0 12.0 0.00 0.00 0.00 42 1008.7
20260509221016 78 248 5.0 11.0 0.00 0.00 0.00 44 1008.7
20260509220036 79 248 6.0 12.0 0.00 0.00 0.00 41 1008.7
20260509215036 79 248 3.0 10.0 0.00 0.00 0.00 42 1008.7
20260509214016 79 248 3.0 11.0 0.00 0.00 0.00 42 1008.7
20260509213016 79 248 5.0 14.0 0.00 0.00 0.00 41 1008.8
20260509212016 79 248 3.0 9.0 0.00 0.00 0.00 46 1008.8
20260509211016 79 248 4.0 11.0 0.00 0.00 0.00 46 1008.8
20260509210016 79 248 4.0 10.0 0.00 0.00 0.00 46 1008.8
20260509205016 79 248 5.0 12.0 0.00 0.00 0.00 41 1008.8
20260509204036 79 248 4.0 11.0 0.00 0.00 0.00 44 1009.0
20260509203036 79 248 4.0 11.0 0.00 0.00 0.00 48 1009.0
20260509202036 79 248 4.0 10.0 0.00 0.00 0.00 52 1009.0
20260509201016 79 248 4.0 9.0 0.00 0.00 0.00 49 1009.2
20260509200036 79 248 5.0 11.0 0.00 0.00 0.00 46 1009.2
20260509195016 79 248 2.0 7.0 0.00 0.00 0.00 49 1009.2
20260509194016 79 248 3.0 7.0 0.00 0.00 0.00 46 1009.4
20260509193016 79 248 4.0 10.0 0.00 0.00 0.00 46 1009.4
20260509192017 78 248 3.0 9.0 0.00 0.00 0.00 49 1009.4
20260509191016 78 248 4.0 11.0 0.00 0.00 0.00 50 1009.5
20260509190016 78 248 4.0 9.0 0.00 0.00 0.00 53 1009.5
20260509185016 77 248 4.0 9.0 0.00 0.00 0.00 55 1009.5
20260509184016 77 248 3.0 8.0 0.00 0.00 0.00 52 1009.6
20260509183016 77 248 3.0 9.0 0.00 0.00 0.00 51 1009.7
20260509182036 77 248 4.0 9.0 0.00 0.00 0.00 54 1009.8
20260509181016 76 248 3.0 9.0 0.00 0.00 0.00 60 1009.7
20260509180016 76 248 3.0 10.0 0.00 0.00 0.00 52 1009.7
20260509175036 76 248 3.0 12.0 0.00 0.00 0.00 52 1009.9
20260509174016 76 248 4.0 11.0 0.00 0.00 0.00 55 1010.0
20260509173016 75 248 4.0 9.0 0.00 0.00 0.00 55 1009.9
20260509172036 74 248 3.0 10.0 0.00 0.00 0.00 56 1009.8
20260509171016 74 248 4.0 11.0 0.00 0.00 0.00 61 1009.9
20260509170016 74 225 2.0 6.0 0.00 0.00 0.00 59 1009.9
20260509165016 73 248 4.0 12.0 0.00 0.00 0.00 58 1010.1
20260509164016 73 248 3.0 8.0 0.00 0.00 0.00 58 1010.0
20260509163016 73 225 3.0 9.0 0.00 0.00 0.00 58 1010.0
20260509162116 73 225 3.0 9.0 0.00 0.00 0.00 56 1009.8
20260509161016 72 248 3.0 9.0 0.00 0.00 0.00 57 1009.8
20260509160016 72 248 4.0 9.0 0.00 0.00 0.00 59 1009.9
20260509155016 73 248 2.0 7.0 0.00 0.00 0.00 60 1009.9
20260509154036 71 248 3.0 8.0 0.00 0.00 0.00 63 1009.7
20260509153016 72 248 4.0 11.0 0.00 0.00 0.00 64 1009.6
20260509152016 71 248 4.0 8.0 0.00 0.00 0.00 67 1009.7
20260509151016 70 248 4.0 9.0 0.00 0.00 0.00 65 1009.7
20260509150016 71 248 3.0 10.0 0.00 0.00 0.00 63 1009.7
20260509145016 70 248 3.0 7.0 0.00 0.00 0.00 64 1009.5
20260509144016 69 248 4.0 7.0 0.00 0.00 0.00 64 1009.5
20260509143056 68 248 3.0 8.0 0.00 0.00 0.00 67 1009.6
20260509142016 67 248 3.0 7.0 0.00 0.00 0.00 69 1009.5
20260509141016 67 248 3.0 8.0 0.00 0.00 0.00 70 1009.5
20260509140036 65 248 3.0 6.0 0.00 0.00 0.00 74 1009.4
20260509135016 64 248 3.0 7.0 0.00 0.00 0.00 77 1009.4
20260509134036 62 248 2.0 6.0 0.00 0.00 0.00 82 1009.4
20260509133016 61 225 2.0 5.0 0.00 0.00 0.00 84 1009.4
20260509132016 59 180 1.0 4.0 0.00 0.00 0.00 85 1009.4
20260509131016 58 0.0 0.0 0.00 0.00 0.00 85 1009.3